View from above orbital plane
|
View from above satellite
|
Ground track
|
The orbit data is extracted from the following two-line orbital elements,
1 23088U 94023B 21104.54775709 -.00000275 00000-0 -11820-3 0 9992
2 23088 70.9997 229.1399 0002538 181.7493 178.3621 14.14681178392890
Epoch (UTC): | 14 April 2021 13:08:46 |
Eccentricity: | 0.0002538 |
inclination: | 70.9997° |
perigee height: | 841 km |
apogee height: | 845 km |
right ascension of ascending node: | 229.1399° |
argument of perigee: | 181.7493° |
revolutions per day: | 14.14681178 |
mean anomaly at epoch: | 178.3621° |
orbit number at epoch: | 39289 |
The dashed part of the orbit path shows where the satellite is in the earth's shadow,
|
|